******** Week 364 almanac for PRN-1 ******** ID: 1 Health: 0 Eccentricity: 0.001665592194 Time of Applicability(s): 147456 Orbital Inclination(rad): 0.9579434383 Rate of Right Ascen(r/s): -7.783181343e-09 SQRT(A) (m 1/2): 5153.574219 Right Ascen at Week(rad): 2.636190177 Argument of Perigee(rad): 0.137235479 Mean Anom(rad): 1.607826459 Af0(s): 0.0002434368042 Af1(s/s): -7.275958e-12 week: 364 ******** Week 364 almanac for PRN-2 ******** ID: 2 Health: 0 Eccentricity: 0.01684093475 Time of Applicability(s): 147456 Orbital Inclination(rad): 0.963042726 Rate of Right Ascen(r/s): -7.760323248e-09 SQRT(A) (m 1/2): 5153.535156 Right Ascen at Week(rad): 2.47381479 Argument of Perigee(rad): -0.7947432376 Mean Anom(rad): 3.112102473 Af0(s): 5.426455078e-05 Af1(s/s): 7.275958e-12 week: 364 ******** Week 364 almanac for PRN-3 ******** ID: 3 Health: 0 Eccentricity: 0.006604671478 Time of Applicability(s): 147456 Orbital Inclination(rad): 0.9938481761 Rate of Right Ascen(r/s): -7.657461821e-09 SQRT(A) (m 1/2): 5153.569336 Right Ascen at Week(rad): -2.65945755 Argument of Perigee(rad): 1.204184656 Mean Anom(rad): -0.4744932894 Af0(s): 0.0004122598511 Af1(s/s): -1.455192e-11 week: 364 ******** Week 364 almanac for PRN-4 ******** ID: 4 Health: 0 Eccentricity: 0.003713130951 Time of Applicability(s): 147456 Orbital Inclination(rad): 0.9705268745 Rate of Right Ascen(r/s): -8.171768958e-09 SQRT(A) (m 1/2): 5153.664062 Right Ascen at Week(rad): -1.589351653 Argument of Perigee(rad): -2.871467851 Mean Anom(rad): 2.483082716 Af0(s): 4.069841309e-05 Af1(s/s): 0 week: 364 ******** Week 364 almanac for PRN-5 ******** ID: 5 Health: 0 Eccentricity: 0.005445480347 Time of Applicability(s): 147456 Orbital Inclination(rad): 0.9803898916 Rate of Right Ascen(r/s): -7.760323248e-09 SQRT(A) (m 1/2): 5153.674316 Right Ascen at Week(rad): -2.719543832 Argument of Perigee(rad): 1.417760022 Mean Anom(rad): -3.12836282 Af0(s): -0.0001823891846 Af1(s/s): 0 week: 364 ******** Week 364 almanac for PRN-6 ******** ID: 6 Health: 0 Eccentricity: 0.003816127777 Time of Applicability(s): 147456 Orbital Inclination(rad): 0.9867714913 Rate of Right Ascen(r/s): -7.531742299e-09 SQRT(A) (m 1/2): 5153.612305 Right Ascen at Week(rad): 2.587508383 Argument of Perigee(rad): -0.5413611448 Mean Anom(rad): 0.8171825752 Af0(s): -0.0004838589111 Af1(s/s): 0 week: 364 ******** Week 364 almanac for PRN-7 ******** ID: 7 Health: 0 Eccentricity: 0.02065706253 Time of Applicability(s): 147456 Orbital Inclination(rad): 0.9511723512 Rate of Right Ascen(r/s): -7.817468486e-09 SQRT(A) (m 1/2): 5153.570312 Right Ascen at Week(rad): -0.580590007 Argument of Perigee(rad): -1.98283308 Mean Anom(rad): -0.02431074924 Af0(s): -0.0001318930054 Af1(s/s): -3.637979e-12 week: 364 ******** Week 364 almanac for PRN-8 ******** ID: 8 Health: 0 Eccentricity: 0.01159715652 Time of Applicability(s): 147456 Orbital Inclination(rad): 0.9428612913 Rate of Right Ascen(r/s): -8.468924193e-09 SQRT(A) (m 1/2): 5153.633301 Right Ascen at Week(rad): 1.465779688 Argument of Perigee(rad): 0.5332534422 Mean Anom(rad): 2.790216304 Af0(s): 0.000371561438 Af1(s/s): -7.275958e-12 week: 364 ******** Week 364 almanac for PRN-9 ******** ID: 9 Health: 0 Eccentricity: 0.003342151642 Time of Applicability(s): 147456 Orbital Inclination(rad): 0.9647384938 Rate of Right Ascen(r/s): -8.240343243e-09 SQRT(A) (m 1/2): 5153.703125 Right Ascen at Week(rad): -1.653813675 Argument of Perigee(rad): 2.055217798 Mean Anom(rad): -2.893902694 Af0(s): 0.0006036931274 Af1(s/s): -3.637979e-12 week: 364 ******** Week 364 almanac for PRN-10 ******** ID: 10 Health: 0 Eccentricity: 0.0109295845 Time of Applicability(s): 147456 Orbital Inclination(rad): 0.9933807914 Rate of Right Ascen(r/s): -7.623174678e-09 SQRT(A) (m 1/2): 5153.606445 Right Ascen at Week(rad): -2.661967121 Argument of Perigee(rad): -2.255444985 Mean Anom(rad): -1.469236013 Af0(s): -0.0004665244019 Af1(s/s): 0 week: 364 ******** Week 364 almanac for PRN-11 ******** ID: 11 Health: 0 Eccentricity: 0.002206802368 Time of Applicability(s): 147456 Orbital Inclination(rad): 0.9636479294 Rate of Right Ascen(r/s): -7.760323248e-09 SQRT(A) (m 1/2): 5153.542969 Right Ascen at Week(rad): 2.605681336 Argument of Perigee(rad): -2.318074919 Mean Anom(rad): 1.955953212 Af0(s): -0.0003082527954 Af1(s/s): 1.455192e-11 week: 364 ******** Week 364 almanac for PRN-12 ******** ID: 12 Health: 0 Eccentricity: 0.008952140808 Time of Applicability(s): 147456 Orbital Inclination(rad): 0.9593455926 Rate of Right Ascen(r/s): -7.977475151e-09 SQRT(A) (m 1/2): 5153.707031 Right Ascen at Week(rad): 0.5369468305 Argument of Perigee(rad): 1.568238819 Mean Anom(rad): -0.7117296352 Af0(s): -0.0004800905395 Af1(s/s): 0 week: 364 ******** Week 364 almanac for PRN-13 ******** ID: 13 Health: 0 Eccentricity: 0.01008462906 Time of Applicability(s): 147456 Orbital Inclination(rad): 0.9761055312 Rate of Right Ascen(r/s): -8.080336578e-09 SQRT(A) (m 1/2): 5153.617188 Right Ascen at Week(rad): -1.478273243 Argument of Perigee(rad): 0.9940446429 Mean Anom(rad): 2.557037742 Af0(s): 0.0005388771362 Af1(s/s): 0 week: 364 ******** Week 364 almanac for PRN-14 ******** ID: 14 Health: 0 Eccentricity: 0.006865978241 Time of Applicability(s): 147456 Orbital Inclination(rad): 0.9427114885 Rate of Right Ascen(r/s): -8.080336578e-09 SQRT(A) (m 1/2): 5153.602539 Right Ascen at Week(rad): 0.48187707 Argument of Perigee(rad): -2.736430354 Mean Anom(rad): -0.8524802372 Af0(s): 0.0005856049438 Af1(s/s): 0 week: 364 ******** Week 364 almanac for PRN-15 ******** ID: 15 Health: 0 Eccentricity: 0.01664638519 Time of Applicability(s): 147456 Orbital Inclination(rad): 0.9427054964 Rate of Right Ascen(r/s): -8.468924193e-09 SQRT(A) (m 1/2): 5153.644043 Right Ascen at Week(rad): -1.798593598 Argument of Perigee(rad): 1.506324193 Mean Anom(rad): 1.795911753 Af0(s): 0.0003150358643 Af1(s/s): 3.637979e-12 week: 364 ******** Week 364 almanac for PRN-16 ******** ID: 16 Health: 0 Eccentricity: 0.01501941681 Time of Applicability(s): 147456 Orbital Inclination(rad): 0.9584527679 Rate of Right Ascen(r/s): -8.000333246e-09 SQRT(A) (m 1/2): 5153.609375 Right Ascen at Week(rad): 0.5538708031 Argument of Perigee(rad): 0.9316116997 Mean Anom(rad): -2.452496726 Af0(s): 0.0001861575562 Af1(s/s): 7.275958e-12 week: 364 ******** Week 364 almanac for PRN-17 ******** ID: 17 Health: 0 Eccentricity: 0.012611866 Time of Applicability(s): 147456 Orbital Inclination(rad): 0.9584947127 Rate of Right Ascen(r/s): -8.240343243e-09 SQRT(A) (m 1/2): 5153.546875 Right Ascen at Week(rad): 1.570967852 Argument of Perigee(rad): -1.117031253 Mean Anom(rad): 2.741984667 Af0(s): -7.988947754e-05 Af1(s/s): -1.091394e-11 week: 364 ******** Week 364 almanac for PRN-18 ******** ID: 18 Health: 0 Eccentricity: 0.005807876587 Time of Applicability(s): 147456 Orbital Inclination(rad): 0.9717193048 Rate of Right Ascen(r/s): -7.668890868e-09 SQRT(A) (m 1/2): 5153.59082 Right Ascen at Week(rad): 2.582080278 Argument of Perigee(rad): -2.869967576 Mean Anom(rad): 0.7579621533 Af0(s): -0.0003074991211 Af1(s/s): 1.091394e-11 week: 364 ******** Week 364 almanac for PRN-19 ******** ID: 19 Health: 0 Eccentricity: 0.01125383377 Time of Applicability(s): 147456 Orbital Inclination(rad): 0.9576678011 Rate of Right Ascen(r/s): -8.228914196e-09 SQRT(A) (m 1/2): 5153.666016 Right Ascen at Week(rad): 1.614859701 Argument of Perigee(rad): 2.943861932 Mean Anom(rad): -1.757949099 Af0(s): 0.0005494285767 Af1(s/s): 0 week: 364 ******** Week 364 almanac for PRN-20 ******** ID: 20 Health: 0 Eccentricity: 0.002230167389 Time of Applicability(s): 147456 Orbital Inclination(rad): 0.9601305594 Rate of Right Ascen(r/s): -8.308917528e-09 SQRT(A) (m 1/2): 5153.69873 Right Ascen at Week(rad): -1.648339131 Argument of Perigee(rad): -1.949335299 Mean Anom(rad): -0.7712740057 Af0(s): 6.481599121e-05 Af1(s/s): 2.182787e-11 week: 364 ******** Week 364 almanac for PRN-21 ******** ID: 21 Health: 0 Eccentricity: 0.0008134841919 Time of Applicability(s): 147456 Orbital Inclination(rad): 0.9632464578 Rate of Right Ascen(r/s): -7.966046103e-09 SQRT(A) (m 1/2): 5153.729492 Right Ascen at Week(rad): -2.654053788 Argument of Perigee(rad): -0.250810353 Mean Anom(rad): -1.074883483 Af0(s): 0.0003255873047 Af1(s/s): 3.637979e-12 week: 364 ******** Week 364 almanac for PRN-22 ******** ID: 22 Health: 0 Eccentricity: 0.01204395294 Time of Applicability(s): 147456 Orbital Inclination(rad): 0.9578955014 Rate of Right Ascen(r/s): -7.966046103e-09 SQRT(A) (m 1/2): 5153.571777 Right Ascen at Week(rad): 0.5572271351 Argument of Perigee(rad): -0.9929450903 Mean Anom(rad): -2.89417234 Af0(s): -2.110288086e-05 Af1(s/s): 7.275958e-12 week: 364 ******** Week 364 almanac for PRN-23 ******** ID: 23 Health: 0 Eccentricity: 0.006075382233 Time of Applicability(s): 147456 Orbital Inclination(rad): 0.9883773775 Rate of Right Ascen(r/s): -7.657461821e-09 SQRT(A) (m 1/2): 5153.663574 Right Ascen at Week(rad): -2.694173228 Argument of Perigee(rad): -2.738521975 Mean Anom(rad): -0.3962891062 Af0(s): 0.0004981787231 Af1(s/s): 3.637979e-12 week: 364 ******** Week 364 almanac for PRN-24 ******** ID: 24 Health: 0 Eccentricity: 0.01796483994 Time of Applicability(s): 147456 Orbital Inclination(rad): 0.935119482 Rate of Right Ascen(r/s): -8.068907531e-09 SQRT(A) (m 1/2): 5153.596191 Right Ascen at Week(rad): -0.6895745484 Argument of Perigee(rad): 1.138599487 Mean Anom(rad): 0.9585331375 Af0(s): -4.672780762e-05 Af1(s/s): 1.818989e-11 week: 364 ******** Week 364 almanac for PRN-25 ******** ID: 25 Health: 0 Eccentricity: 0.01290273666 Time of Applicability(s): 147456 Orbital Inclination(rad): 0.9477628393 Rate of Right Ascen(r/s): -8.034620388e-09 SQRT(A) (m 1/2): 5153.661133 Right Ascen at Week(rad): 0.4428339633 Argument of Perigee(rad): 1.159105245 Mean Anom(rad): -0.8303112936 Af0(s): 0.000342921814 Af1(s/s): -3.637979e-12 week: 364 ******** Week 364 almanac for PRN-26 ******** ID: 26 Health: 0 Eccentricity: 0.01101922989 Time of Applicability(s): 147456 Orbital Inclination(rad): 0.928564111 Rate of Right Ascen(r/s): -8.171768958e-09 SQRT(A) (m 1/2): 5153.677734 Right Ascen at Week(rad): 0.3678022291 Argument of Perigee(rad): 0.7112772307 Mean Anom(rad): -1.651498472 Af0(s): -0.0002743374512 Af1(s/s): -3.637979e-12 week: 364 ******** Week 364 almanac for PRN-27 ******** ID: 27 Health: 0 Eccentricity: 0.01438331604 Time of Applicability(s): 147456 Orbital Inclination(rad): 0.9519393416 Rate of Right Ascen(r/s): -8.354633718e-09 SQRT(A) (m 1/2): 5153.605469 Right Ascen at Week(rad): 1.498068186 Argument of Perigee(rad): 0.8896324579 Mean Anom(rad): 2.896598022 Af0(s): -6.858436279e-05 Af1(s/s): -1.455192e-11 week: 364 ******** Week 364 almanac for PRN-28 ******** ID: 28 Health: 0 Eccentricity: 0.0003771781921 Time of Applicability(s): 147456 Orbital Inclination(rad): 0.962083988 Rate of Right Ascen(r/s): -7.771752296e-09 SQRT(A) (m 1/2): 5153.516602 Right Ascen at Week(rad): -0.6060186598 Argument of Perigee(rad): -0.2893325205 Mean Anom(rad): 0.5763719344 Af0(s): -0.0004476825439 Af1(s/s): 7.275958e-12 week: 364 ******** Week 364 almanac for PRN-29 ******** ID: 29 Health: 0 Eccentricity: 0.003452777863 Time of Applicability(s): 147456 Orbital Inclination(rad): 0.9611492185 Rate of Right Ascen(r/s): -8.228914196e-09 SQRT(A) (m 1/2): 5153.684082 Right Ascen at Week(rad): 1.587781719 Argument of Perigee(rad): 2.748852003 Mean Anom(rad): 2.744400612 Af0(s): -0.0002758447998 Af1(s/s): 7.275958e-12 week: 364 ******** Week 364 almanac for PRN-30 ******** ID: 30 Health: 0 Eccentricity: 0.008155345917 Time of Applicability(s): 147456 Orbital Inclination(rad): 0.9364437388 Rate of Right Ascen(r/s): -8.000333246e-09 SQRT(A) (m 1/2): 5153.695801 Right Ascen at Week(rad): -0.5899916315 Argument of Perigee(rad): -2.299306874 Mean Anom(rad): -0.2291196549 Af0(s): 0.0001349077026 Af1(s/s): 1.455192e-11 week: 364 ******** Week 364 almanac for PRN-31 ******** ID: 31 Health: 0 Eccentricity: 0.01083421707 Time of Applicability(s): 147456 Orbital Inclination(rad): 0.9549473821 Rate of Right Ascen(r/s): -7.828897533e-09 SQRT(A) (m 1/2): 5153.537598 Right Ascen at Week(rad): -0.5562549148 Argument of Perigee(rad): 0.9401538306 Mean Anom(rad): -1.108853143 Af0(s): -0.0001251099365 Af1(s/s): 3.637979e-12 week: 364 ******** Week 364 almanac for PRN-32 ******** ID: 32 Health: 0 Eccentricity: 0.009378433227 Time of Applicability(s): 147456 Orbital Inclination(rad): 0.9677585185 Rate of Right Ascen(r/s): -8.206056101e-09 SQRT(A) (m 1/2): 5153.685547 Right Ascen at Week(rad): -1.636711811 Argument of Perigee(rad): -1.985967704 Mean Anom(rad): -2.829054181 Af0(s): -1.808818359e-05 Af1(s/s): 1.818989e-11 week: 364